Copper Harbor, MI

7:14 AM EST on January 24, 2018 (GMT -0500)
Copper Harbor

Weather History for KP59 - August, 2013

Change the Weather History Date:

Monday, August 12, 2013

  Actual Average Record
Temperature  
Mean Temperature 56 °F -  
Max Temperature 64 °F 68 °F 82 °F (2015)
Min Temperature 48 °F 52 °F 48 °F (2003)
Degree Days  
Heating Degree Days 9    
Growing Degree Days 6 (Base 50)    
Moisture  
Dew Point 52 °F    
Average Humidity 80    
Maximum Humidity 96    
Minimum Humidity 67    
Precipitation  
Precipitation 0.00 in - - ()
Sea Level Pressure  
Sea Level Pressure 29.97 in    
Wind  
Wind Speed 5 mph (NNW)    
Max Wind Speed 17 mph    
Max Gust Speed -    
Averages and records for this station are not official NWS values.
T = Trace of Precipitation, MM = Missing Value Source: NWS Daily Summary

Daily Weather History Graph

Daily Weather History Graph

Search for Another Location

Airport or City:

Trip Planner

Search our weather history database for the weather conditions in past years. The results will help you decide how hot, cold, wet, or windy it might be!

Date:

Astronomy

Aug. 12, 2013 Rise Set
Actual Time 6:44 AM EDT 9:08 PM EDT
Civil Twilight 6:09 AM EDT 9:42 PM EDT
Nautical Twilight 5:27 AM EDT 10:24 PM EDT
Astronomical Twilight 4:38 AM EDT 11:13 PM EDT
Moon 1:03 PM EDT (8/12) 11:30 PM EDT (8/12)
Length of Visible Light 15h 32m
Length of Day
14h 23m
Waxing Crescent, 31% of the Moon is Illuminated
Aug 12
Waxing Crescent
Aug 14
First Quarter
Aug 20
Full
Aug 28
Last Quarter
Sep 5
New

Hourly Weather History & Observations

Time (EDT) Temp. Dew Point Humidity Pressure Visibility Wind Dir Wind Speed Gust Speed Precip Events Conditions
12:51 AM 63.0 °F 54.0 °F 72% 29.96 in - SW 3.5 mph - N/A   Unknown
1:51 AM 64.0 °F 53.1 °F 67% 29.95 in - WSW 3.5 mph - N/A   Unknown
2:51 AM 64.0 °F 53.1 °F 67% 29.94 in - WSW 4.6 mph - N/A   Unknown
3:51 AM 63.0 °F 54.0 °F 72% 29.93 in - Calm Calm - N/A   Unknown
4:51 AM 60.1 °F 55.0 °F 83% 29.93 in - Calm Calm - N/A   Unknown
5:51 AM 61.0 °F 54.0 °F 78% 29.91 in - SW 4.6 mph - N/A   Unknown
6:51 AM 62.1 °F 54.0 °F 75% 29.91 in - Calm Calm - N/A   Unknown
7:51 AM 59.0 °F 54.0 °F 83% 29.92 in - Calm Calm - N/A   Unknown
8:51 AM 61.0 °F 55.9 °F 83% 29.91 in - North 5.8 mph - N/A   Unknown
9:51 AM 61.0 °F 57.9 °F 90% 29.91 in - North 13.8 mph - N/A   Unknown
10:51 AM 61.0 °F 55.9 °F 83% 29.92 in - North 9.2 mph - N/A   Unknown
11:51 AM 57.9 °F 54.0 °F 87% 29.93 in - NNE 10.4 mph - N/A   Unknown
12:51 PM 53.1 °F 52.0 °F 96% 29.96 in - NNE 17.3 mph - N/A   Unknown
1:51 PM 53.1 °F 50.0 °F 89% 29.98 in - NE 6.9 mph - N/A   Unknown
2:51 PM 54.0 °F 50.0 °F 86% 29.99 in - NNE 6.9 mph - N/A   Unknown
3:51 PM 54.0 °F 48.9 °F 83% 30.01 in - NNE 12.7 mph - N/A   Unknown
4:51 PM 55.9 °F 50.0 °F 80% 30.03 in - North 11.5 mph - N/A   Unknown
5:51 PM 57.0 °F 48.9 °F 74% 30.02 in - North 9.2 mph - N/A   Unknown
6:51 PM 57.9 °F 48.9 °F 72% 30.02 in - North 5.8 mph - N/A   Unknown
7:51 PM 57.0 °F 46.9 °F 69% 30.03 in - North 4.6 mph - N/A   Unknown
8:51 PM 55.9 °F 46.9 °F 72% 30.03 in - NNE 4.6 mph - N/A   Unknown
9:51 PM 51.1 °F 46.9 °F 86% 30.04 in - West 4.6 mph - N/A   Unknown
10:51 PM 48.9 °F 46.0 °F 90% 30.05 in - West 3.5 mph - N/A   Unknown
11:51 PM 51.1 °F 46.9 °F 86% 30.05 in - West 4.6 mph - N/A   Unknown